Location: CNYAC Observatory
(43.2150°N, 74.9500°W)
Time: 03:54:50
(UTC-05:00)

Daily predictions for brighter satellites

Satellite Brightness Start Highest point End
(mag) Time Altitude Azimuth Time Altitude Azimuth Time Altitude Azimuth
Cosmos 2369 Rocket 4.2 02:59:34 24° NE 02:59:34 24° NE 03:01:43 10° NNE
ATLAS 5 CENTAUR R/B 3.7 03:28:11 28° NE 03:28:11 28° NE 03:30:40 10° NE
Cosmos 1943 Rocket 3.2 03:33:34 43° NE 03:33:34 43° NE 03:37:25 10° NNE
ADEOS II 2.7 03:42:47 10° NNE 03:47:40 54° E 03:47:40 54° E
CZ-4B R/B 3.6 03:44:28 10° NNE 03:50:04 63° ESE 03:50:12 63° ESE
Okean-O 4.2 04:03:28 10° NNE 04:07:30 33° E 04:10:30 16° SSE
Lacrosse 5 rocket 3.5 04:08:34 18° NNE 04:08:34 18° NNE 04:10:59 10° ENE
Tiangong 1 4.1 04:16:41 15° E 04:16:41 15° E 04:17:20 10° E
Lacrosse 5 2.3 04:16:33 52° N 04:16:33 52° N 04:20:55 10° NE
Okean 2 Rocket 4.2 04:13:58 10° N 04:18:10 43° ENE 04:22:21 10° SSE
ATLAS CENTAUR R/B 3.9 04:21:01 44° SW 04:21:18 44° SW 04:35:17 10° SSE
Cosmos 1703 Rocket 3.7 04:22:19 70° NE 04:22:19 70° NE 04:26:17 10° N
Meteor 1-14 Rocket 4.4 04:18:21 10° N 04:24:11 75° E 04:29:51 10° SSE
Cosmos 2056 Rocket 4.5 04:30:06 32° NNW 04:30:06 32° NNW 04:33:35 10° N
CZ-4C R/B 2.1 04:27:47 52° SSW 04:29:09 82° SE 04:35:10 10° NE
Cosmos 1656 Rocket 3.6 04:30:11 40° SSW 04:32:20 87° ESE 04:38:02 10° NNE
ADEOS Rocket 4.5 04:27:41 10° N 04:31:23 22° NW 04:31:23 22° NW
Cosmos 1954 Rocket 3.9 04:30:13 20° NNW 04:33:53 72° WSW 04:39:10 10° S
PAYLOAD B 4.3 04:29:17 10° N 04:34:39 52° WNW 04:34:53 52° WNW
IRS-1C Rocket 4.3 04:31:31 10° N 04:36:17 47° WNW 04:36:17 47° WNW
S3M 4.3 04:31:05 10° S 04:37:20 68° E 04:43:33 10° NNE
GEOS 3 Rocket 3.4 04:32:58 10° SSE 04:38:01 67° SW 04:39:30 45° WNW
CZ-4B DEB 4.3 04:33:40 10° N 04:39:02 53° WNW 04:39:46 49° W
Meteor 1-26 Rocket 4.1 04:36:09 29° SSW 04:39:08 75° W 04:44:45 10° N
Cosmos 2219 3.1 04:34:37 10° NNW 04:40:21 86° ENE 04:45:59 10° SSE
Cosmos 2369 Rocket 3.6 04:41:22 22° NW 04:41:22 22° NW 04:45:01 10° N
USA 234 3.3 04:34:43 10° NE 04:41:16 76° SE 04:45:09 27° SW
Meteor PRIRODA 4.1 04:37:38 10° N 04:40:28 50° N 04:40:28 50° N
Cosmos 1420 Rocket 4.0 04:38:53 22° SSW 04:42:17 78° ESE 04:47:29 10° NNE
Cosmos 2227 Rocket 3.9 04:37:42 10° N 04:42:45 32° NE 04:47:46 10° ESE
Cosmos 1553 Rocket 4.1 04:37:10 10° S 04:43:20 78° E 04:49:40 10° N
Meteor 1-25 Rocket 4.4 04:37:37 10° N 04:43:30 77° E 04:49:20 10° SSE
Okean O Rocket 3.4 04:40:17 10° N 04:41:51 19° NNW 04:41:51 19° NNW
Meteor 1-31 Rocket 2.6 04:44:50 10° NNE 04:48:45 89° WNW 04:50:10 38° SSW
COSMO-SKYMED 1 3.5 04:46:16 10° SE 04:50:26 48° ENE 04:54:38 10° N
Cosmos 546 4.5 04:54:20 63° WSW 04:54:34 65° SW 04:58:21 10° SE
Meteor 2-10 Rocket 3.5 04:54:32 35° SW 04:56:18 52° WNW 05:01:18 10° N
ATLAS 3B R/B 3.3 04:54:27 10° SSW 05:01:54 62° ESE 05:09:06 10° NE
Okean 1-7 3.0 05:00:19 29° SW 05:02:17 56° W 05:06:30 10° N
Cosmos 2221 Rocket 3.8 05:01:45 31° SW 05:03:30 48° WNW 05:07:56 10° N
ERS-2 3.5 05:01:45 10° N 05:03:55 25° NW 05:03:55 25° NW
Cosmos 1452 Rocket 4.0 05:07:57 29° WSW 05:09:48 39° WNW 05:14:46 10° N
Thor Agena Rocket 3.5 05:04:41 10° S 05:09:49 58° WSW 05:14:54 10° NNW
ATLAS 5 CENTAUR R/B 3.3 05:09:45 20° NW 05:10:51 21° NNW 05:14:52 10° NNE
Meteor 1-10 Rocket 4.3 05:08:06 10° S 05:13:40 81° E 05:19:22 10° NNE
Cosmos 1943 Rocket 3.3 05:15:06 21° WNW 05:16:08 23° NW 05:20:28 10° N
SKYMED 3 4.5 05:16:04 10° S 05:20:24 80° WSW 05:24:47 10° NNW
Cosmos 1741 Rocket 4.0 05:15:53 10° NNW 05:21:01 58° WSW 05:26:11 10° S
Feng Yun 1-1 Rocket 4.5 05:15:31 10° N 05:21:15 55° WNW 05:27:00 10° SW
Cosmos 1932 4.5 05:16:45 10° SSW 05:23:07 88° WNW 05:29:40 10° NNE
Radarsat Rocket 4.3 05:16:52 10° NNE 05:24:08 88° ESE 05:30:29 10° SSW
Cosmos 1782 Rocket 4.5 05:20:45 10° NNW 05:24:28 26° W 05:28:09 10° SW
Abrixas 3.8 05:24:13 20° NW 05:25:28 29° N 05:28:02 10° ENE
ADEOS II 3.3 05:23:24 10° NNW 05:27:16 21° WNW 05:28:37 19° W
CZ-4B R/B 4.5 05:26:03 10° NNW 05:30:08 21° WNW 05:32:07 18° W
Cosmos 1300 Rocket 4.2 05:25:50 10° N 05:30:15 60° E 05:34:35 10° SSE
Meteor 1-28 Rocket 3.1 05:26:56 10° S 05:30:40 83° WSW 05:34:26 10° NNW
Cosmos 1745 Rocket 4.1 05:26:27 10° NNW 05:32:22 50° W 05:38:14 10° SSW
Cosmos 1386 Rocket 4.4 05:26:25 10° NNW 05:32:25 66° W 05:38:30 10° S
Cosmos 1140 Rocket 4.3 05:28:13 10° NW 05:32:36 28° W 05:37:00 10° SSW
Cosmos 2315 Rocket 4.4 05:27:04 10° S 05:33:23 69° E 05:39:41 10° NNE
SKYMED 2 3.7 05:34:16 10° S 05:38:29 50° W 05:42:43 10° NNW
CSL-04 Rocket 4.3 05:33:17 10° NNE 05:38:38 60° ESE 05:44:01 10° S
Cosmos 1536 3.9 05:38:55 10° N 05:42:50 48° ENE 05:46:43 10° SSE
Cosmos 883 Rocket 4.5 05:36:47 10° SSW 05:43:06 75° W 05:49:29 10° N
Okean-O 3.7 05:40:14 10° NNW 05:43:50 25° WNW 05:47:26 10° WSW
Cosmos 2082 3.8 05:39:13 10° NNW 05:44:55 80° ENE 05:50:33 10° SSE
Lacrosse 5 rocket 0.9 05:44:25 10° NW 05:48:02 84° SW 05:51:38 10° SE
Meteor 1-27 Rocket 3.8 05:42:22 10° S 05:48:10 88° W 05:54:07 10° N
Cosmos 1674 Rocket 3.5 05:44:54 10° SSW 05:49:18 74° W 05:53:45 10° N
Cosmos 1378 Rocket 4.3 05:45:29 10° S 05:49:46 58° E 05:54:03 10° NNE
USA 81 4.4 05:45:11 10° SSW 05:50:12 44° W 05:55:15 10° N
Tiangong 1 0.8 05:48:10 16° W 05:50:22 82° S 05:53:18 10° E
BREEZE M DEB (TANK) 4.1 05:42:44 12° W 05:53:49 49° N 05:57:43 10° ENE
Cosmos 1606 3.4 05:53:23 10° SW 05:56:53 32° WNW 06:00:26 10° N
Cosmos 1602 3.8 05:55:05 10° NNW 05:58:58 56° W 06:02:50 10° S
Lacrosse 5 3.5 05:56:00 10° WNW 05:59:49 21° NNW 06:03:39 10° NNE
PAYLOAD A 4.0 05:56:31 10° NNE 06:01:17 86° ESE 06:06:10 10° SSW
Cosmos 2369 3.7 05:55:57 10° SSW 06:01:36 89° WNW 06:07:18 10° NNE
Cosmos 1607 4.1 05:57:39 10° SW 06:03:40 56° NW 06:09:45 10° NNE
Cosmos 1782 4.1 06:02:57 10° WSW 06:05:58 21° WNW 06:09:01 10° NNW
Cosmos 2297 Rocket 2.2 06:00:57 10° NNW 06:06:37 80° WSW 06:12:15 10° SSE
Okean 1 Rocket 3.0 06:05:32 10° NNW 06:09:55 67° W 06:14:15 10° S
SMAP 3.9 06:07:14 10° NNE 06:11:50 57° E 06:16:24 10° S
CSL-04 Debris 4.2 06:07:10 10° NNE 06:12:36 81° WNW 06:17:58 10° SSW
Cosmos 2278 3.7 06:12:06 10° SW 06:17:42 64° WNW 06:23:20 10° NNE
Gblst 52 Del rocket 4.5 06:12:12 10° WSW 06:18:01 86° NNW 06:24:41 10° ENE
